Hourly Data Report for October 19, 2016

All times are specified in Local Standard Time (LST). Add 1 hour to adjust for Daylight Saving Time where and when it is observed.

GJOA HAVEN A
NUNAVUT

68°38'08.000" N
95°51'01.000" W
46.90 m
2302337
71597
YHK

Related Data

No related data is available for this station

Download Data

Hourly Data (October 2016)
Hourly Data Report for October 19, 2016
Temp Definition
°C
Dew Point Temp Definition
°C
Rel Hum Definition
%
Wind Dir Definition
10's deg

Wind Spd Definition
km/h
Visibility Definition
km
Stn Press Definition
kPa
Hmdx Definition


Wind Chill Definition


Weather Definition


TIME
00:00 Legend Double Dagger -3.0 -3.6 96 21 43 2.8 100.77   -12 Snow
01:00 Legend Double Dagger -2.9 -3.3 97 21 50 2.0 100.70   -12 Snow
02:00 Legend Double Dagger -2.6 -2.9 98 21 46 1.6 100.62   -11 Snow
03:00 Legend Double Dagger -2.5 -2.8 98 21 46 1.6 100.49   -11 Snow
04:00 Legend Double Dagger -2.1 -2.4 98 21 46 1.6 100.40   -11 Snow
05:00 Legend Double Dagger -1.9 -2.2 98 21 48 1.6 100.30   -11 Snow
06:00 Legend Double Dagger -1.8 -2.1 98 21 45 2.0 100.22   -10 Snow
07:00 Legend Double Dagger -1.8 -2.1 98 23 39 2.0 100.15   -10 Snow
08:00 Legend Double Dagger -2.0 -2.1 99 24 32 4.0 100.08   -9 Snow
09:00 Legend Double Dagger -1.9 -2.0 99 24 30 3.6 100.05   -9 Snow
10:00 Legend Double Dagger -1.8 -2.1 98 28 30 11.3 100.07   -9 Snow
11:00 Legend Double Dagger -3.1 -3.8 95 29 28 16.1 100.11   -10 LegendNANA
12:00 Legend Double Dagger -4.2 -5.0 94 29 39 9.7 100.16   -13 Fog
13:00 Legend Double Dagger -5.7 -6.4 95 29 35 6.4 100.24   -14 Fog
14:00 Legend Double Dagger -5.6 -6.6 93 31 43 6.4 100.28   -15 Fog
15:00 Legend Double Dagger -7.3 -8.4 92 31 34 14.5 100.38   -16 LegendNANA
16:00 Legend Double Dagger -10.3 -11.2 93 32 39 11.3 100.47   -21 LegendNANA
17:00 Legend Double Dagger -8.4 -9.3 93 32 41 4.0 100.51   -19 Snow
18:00 Legend Double Dagger -10.7 -12.0 90 31 37 11.3 100.61   -21 LegendNANA
19:00 Legend Double Dagger -10.7 -11.8 92 31 34 6.4 100.68   -21 Fog
20:00 Legend Double Dagger -12.4 -13.7 90 31 34 16.1 100.72   -23 LegendNANA
21:00 Legend Double Dagger -12.7 -13.9 91 32 35 9.7 100.76   -24 Fog
22:00 Legend Double Dagger -13.5 -14.8 90 30 30 16.1 100.82   -24 LegendNANA
23:00 Legend Double Dagger -14.8 -16.1 90 31 32 14.5 100.86   -26 LegendNANA

Notes on Data Quality.

Legend

  • E = Estimated
  • M = Missing
  • NA = Not Available
  • ‡ = Partner data that is not subject to review by the National Climate Archives
Date modified: